Location: Kolin
(50.0330°N, 15.2000°E)
Time: 08:55:30
(UTC+02:00)

Gurwin Techsat 1B - Pass Details

Date: 21 August 2022
Orbit: 811 x 814 km, 98.8° (Epoch: 25 September)

Event Time Altitude Azimuth Distance (km) Brightness Sun altitude
Rises 04:27:19 0° 11° (N) 3,351 12.6 -13.4°
Reaches altitude 10° 04:29:44 10° 6° (N) 2,415 11.7 -13.1°
Maximum altitude 04:34:51 49° 293° (WNW) 1,047 9.0 -12.5°
Enters shadow 04:38:55 16° 224° (SW) 2,021 10.0 -11.9°
